Home   Weather   41°21'N, 81°35'W   Past weeks
Flag for USA

Past Weather in 41°21'N, 81°35'W, USA — Yesterday and Last 2 Weeks

Now
44 °F

Light rain. Fog.


Feels Like: 40 °F
Forecast: 35 / 25 °F
Wind: 7 mph from West

Location: Cleveland-Hopkins International Airport

Current Time: Jan 23, 2019 at 9:28:53 pm

Latest Report: Jan 23, 2019 at 8:36 pm


Visibility: 5 mi

Pressure: 29.68 "Hg

Humidity: 93%

Dew Point: 42 °F

Location of 41°21'N, 81°35'WLocation

Past Weather in 41°21'N, 81°35'W — Graph

°F

41°21'N, 81°35'W Temperature Yesterday

Maximum temperature yesterday: 40 °F (at 11:51 pm)
Minimum temperature yesterday: 5 °F (at 12:51 am)
Average temperature yesterday: 22 °F

High & Low Weather Summary for the Past Weeks

 TemperatureHumidityPressure
High48 °F (Jan 23, 2:51 pm)97% (Jan 18, 2:21 am)30.67 "Hg (Jan 18, 2:21 am)
Low5 °F (Jan 21, 11:57 pm)38% (Jan 22, 2:51 pm)29.65 "Hg (Jan 23, 6:07 pm)
Average26 °F75%30.19 "Hg
* Reported Jan 8 7:51 pm — Jan 23 7:51 pm, 41°21'N, 81°35'W. Weather by CustomWeather, © 2019

Note: Actual official high and low records may vary slightly from our data, if they occured in-between our weather recording intervals... More about our weather records

Advertising

41°21'N, 81°35'W Weather History for the Previous 24 Hours

Scroll right to see more
 ConditionsComfort  
Time TempWeatherWind HumidityBarometerVisibility
7:51 pm
Wed, Jan 23
46 °FLight rain. Fog.12 mph93%29.70 "Hg5 mi
6:51 pm48 °FLight rain. Fog.20 mph89%29.69 "Hg6 mi
6:07 pm48 °FLight rain. Mostly cloudy.15 mph86%29.65 "Hg10 mi
4:51 pm48 °FLight rain. More clouds than sun.15 mph86%29.67 "Hg10 mi
3:51 pm48 °FLight rain. Mostly cloudy.20 mph86%29.68 "Hg10 mi
2:51 pm48 °FCloudy.22 mph83%29.70 "Hg10 mi
2:07 pm47 °FLight rain. Cloudy.18 mph83%29.71 "Hg10 mi
1:51 pm46 °FLight rain. Cloudy.17 mph86%29.73 "Hg10 mi
12:51 pm45 °FLight rain. Mostly cloudy.18 mph86%29.75 "Hg10 mi
11:51 am44 °FLight rain. Mostly cloudy.17 mph85%29.80 "Hg9 mi
11:34 am43 °FLight rain. Mostly cloudy.14 mph89%29.81 "Hg7 mi
10:51 am42 °FLight rain. Mostly cloudy.14 mph89%29.85 "Hg7 mi
10:23 am42 °FLight rain. Fog.13 mph89%29.86 "Hg4 mi
10:02 am42 °FRain. Fog.16 mph89%29.85 "Hg4 mi
9:02 am41 °FRain. Fog.14 mph89%29.86 "Hg3 mi
8:32 am41 °FRain. Fog.13 mph89%29.87 "Hg4 mi
8:03 am40 °FLight rain. Fog.15 mph86%29.88 "Hg5 mi
7:51 am40 °FLight rain. Fog.15 mph86%29.91 "Hg6 mi
6:51 am39 °FLight rain. Overcast.8 mph86%29.96 "Hg7 mi
5:51 am39 °FLight rain. Mostly cloudy.8 mph82%29.98 "Hg5 mi
4:51 am41 °FLight rain. Overcast.17 mph67%29.98 "Hg10 mi
3:51 am41 °FLight rain. Overcast.18 mph65%30.00 "Hg10 mi
2:51 am41 °FLight rain. Mostly cloudy.17 mph62%30.03 "Hg10 mi
1:51 am43 °FMostly cloudy.18 mph47%30.02 "Hg10 mi
12:51 am41 °FMostly cloudy.23 mph49%30.04 "Hg10 mi
11:51 pm
Tue, Jan 22
40 °FMostly cloudy.21 mph45%30.09 "Hg10 mi
10:51 pm38 °FMostly cloudy.23 mph45%30.11 "Hg10 mi
9:51 pm37 °FOvercast.21 mph41%30.15 "Hg10 mi
Weather by CustomWeather, © 2019

See weather overview